Change the Weather History Date:

Wednesday, November 20, 2013

  Actual Average (KGUC) Record (KGUC)
Temperature  
Mean Temperature 45 °F -  
Max Temperature 54 °F 36 °F 55 °F (2007)
Min Temperature 35 °F 11 °F -2 °F (2000)
Degree Days  
Heating Degree Days 20    
Moisture  
Dew Point 26 °F    
Average Humidity 51    
Maximum Humidity 94    
Minimum Humidity 22    
Precipitation  
Precipitation 0.00 in - - ()
Sea Level Pressure  
Sea Level Pressure 29.97 in    
Wind  
Wind Speed 13 mph (SW)    
Max Wind Speed 20 mph    
Max Gust Speed 28 mph    
Visibility 10 miles    
Events      
Averages and records for this station are not official NWS values.
T = Trace of Precipitation, MM = Missing Value Source: NWS Daily Summary

Daily Weather History Graph

Daily Weather History Graph

Search for Another Location

Airport or City:

Trip Planner

Search our weather history database for the weather conditions in past years. The results will help you decide how hot, cold, wet, or windy it might be!

Date:

Astronomy

Nov. 20, 2013 Rise Set
Actual Time 6:51 AM MST 4:47 PM MST
Civil Twilight 6:23 AM MST 5:16 PM MST
Nautical Twilight 5:50 AM MST 5:48 PM MST
Astronomical Twilight 5:19 AM MST 6:20 PM MST
Moon 7:33 PM MST (11/20) 9:18 AM MST (11/20)
Length of Visible Light 10h 53m
Length of Day
9h 55m
Waning Gibbous, 91% of the Moon is Illuminated
Nov 20
Waning Gibbous
Nov 25
Last Quarter
Dec 2
New
Dec 9
First Quarter
Dec 17
Full

Hourly Weather History & Observations

Time (MST) Temp. Windchill Dew Point Humidity Pressure Visibility Wind Dir Wind Speed Gust Speed Precip Events Conditions
12:15 AM 42.4 °F 33.8 °F 24.6 °F 49% 29.97 in 10.0 mi WSW 19.6 mph 27.6 mph N/A   Clear
12:35 AM 43.5 °F 35.5 °F 24.3 °F 47% 29.97 in 10.0 mi WSW 18.4 mph 25.3 mph N/A   Scattered Clouds
12:55 AM 43.3 °F 35.5 °F 24.3 °F 47% 29.97 in 10.0 mi WSW 17.3 mph 21.9 mph N/A   Scattered Clouds
1:15 AM 43.0 °F 34.8 °F 24.4 °F 48% 29.97 in 10.0 mi SW 18.4 mph 24.2 mph N/A   Clear
1:35 AM 43.0 °F 35.7 °F 25.0 °F 49% 29.98 in 10.0 mi SW 15.0 mph 24.2 mph N/A   Clear
1:55 AM 42.1 °F 34.9 °F 24.8 °F 50% 29.98 in 10.0 mi WSW 13.8 mph 19.6 mph N/A   Clear
2:15 AM 41.5 °F 33.2 °F 25.3 °F 53% 29.98 in 10.0 mi WSW 17.3 mph 23.0 mph N/A   Clear
2:35 AM 41.5 °F 33.8 °F 26.1 °F 54% 29.99 in 10.0 mi WSW 15.0 mph 19.6 mph N/A   Scattered Clouds
2:55 AM 41.7 °F 34.8 °F 25.7 °F 53% 29.99 in 10.0 mi WSW 12.7 mph 19.6 mph N/A   Scattered Clouds
3:15 AM 41.0 °F 33.1 °F 26.4 °F 56% 29.98 in 10.0 mi WSW 15.0 mph 20.7 mph N/A   Clear
3:35 AM 41.0 °F 34.3 °F 25.7 °F 55% 29.99 in 10.0 mi WSW 11.5 mph 23.0 mph N/A   Clear
3:55 AM 40.3 °F 32.6 °F 25.7 °F 56% 29.98 in 10.0 mi SW 13.8 mph - N/A   Clear
4:15 AM 40.3 °F 31.3 °F 26.4 °F 58% 29.98 in 10.0 mi WSW 18.4 mph 24.2 mph N/A   Clear
4:35 AM 40.6 °F 32.0 °F 26.2 °F 57% 29.98 in 10.0 mi WSW 17.3 mph 24.2 mph N/A   Scattered Clouds
4:55 AM 40.6 °F 36.7 °F 25.7 °F 55% 29.99 in 10.0 mi NW 5.8 mph - N/A   Scattered Clouds
5:15 AM 39.2 °F 33.6 °F 25.7 °F 58% 29.99 in 10.0 mi NW 8.1 mph - N/A   Scattered Clouds
5:35 AM 40.1 °F 34.7 °F 24.8 °F 54% 29.99 in 10.0 mi WNW 8.1 mph - N/A   Scattered Clouds
5:55 AM 40.1 °F 34.7 °F 24.3 °F 53% 29.99 in 10.0 mi NW 8.1 mph - N/A   Scattered Clouds
6:15 AM 41.0 °F 34.3 °F 23.4 °F 50% 29.99 in 10.0 mi West 11.5 mph - N/A   Clear
6:35 AM 39.6 °F 35.4 °F 23.7 °F 53% 30.00 in 10.0 mi SW 5.8 mph - N/A   Clear
6:55 AM 38.8 °F 33.2 °F 24.3 °F 56% 30.01 in 10.0 mi West 8.1 mph - N/A   Clear
7:15 AM 37.8 °F 33.3 °F 25.2 °F 60% 30.01 in 10.0 mi West 5.8 mph - N/A   Clear
7:35 AM 36.5 °F 32.7 °F 24.4 °F 62% 30.02 in 10.0 mi NNW 4.6 mph - N/A   Clear
7:55 AM 40.1 °F 36.9 °F 24.8 °F 54% 30.02 in 10.0 mi SSW 4.6 mph - N/A   Clear
8:15 AM 42.6 °F 35.2 °F 25.7 °F 51% 30.03 in 10.0 mi SSW 15.0 mph 24.2 mph N/A   Clear
8:35 AM 43.2 °F 36.2 °F 25.9 °F 51% 30.02 in 10.0 mi SSW 13.8 mph 20.7 mph N/A   Clear
8:55 AM 44.6 °F 38.1 °F 25.7 °F 48% 30.02 in 10.0 mi SSW 13.8 mph 19.6 mph N/A   Clear
9:15 AM 43.5 °F 35.8 °F 24.4 °F 47% 30.01 in 10.0 mi South 17.3 mph 21.9 mph N/A   Clear
9:35 AM 45.7 °F 38.8 °F 24.6 °F 44% 30.01 in 10.0 mi SW 16.1 mph 24.2 mph N/A   Clear
9:55 AM 46.8 °F - 24.4 °F 42% 30.01 in 10.0 mi SSW 13.8 mph 27.6 mph N/A   Clear
10:15 AM 47.3 °F - 24.1 °F 40% 30.00 in 10.0 mi South 15.0 mph 23.0 mph N/A   Clear
10:35 AM 48.2 °F - 23.2 °F 37% 29.98 in 10.0 mi SSW 13.8 mph 19.6 mph N/A   Clear
10:55 AM 49.8 °F - 23.0 °F 35% 29.98 in 10.0 mi SW 10.4 mph 18.4 mph N/A   Clear
11:15 AM 50.9 °F - 22.1 °F 32% 29.97 in 10.0 mi South 13.8 mph 19.6 mph N/A   Clear
11:35 AM 50.7 °F - 22.1 °F 33% 29.96 in 10.0 mi SSW 18.4 mph 23.0 mph N/A   Clear
11:55 AM 50.9 °F - 21.9 °F 32% 29.95 in 10.0 mi SSW 16.1 mph 21.9 mph N/A   Clear
12:15 PM 51.6 °F - 21.4 °F 31% 29.95 in 10.0 mi South 16.1 mph 20.7 mph N/A   Clear
12:35 PM 52.0 °F - 22.1 °F 31% 29.93 in 10.0 mi SSW 11.5 mph 19.6 mph N/A   Clear
12:55 PM 52.9 °F - 20.8 °F 29% 29.92 in 10.0 mi SSW 11.5 mph 19.6 mph N/A   Clear
1:15 PM 53.2 °F - 20.8 °F 28% 29.91 in 10.0 mi SSW 12.7 mph 21.9 mph N/A   Clear
1:35 PM 52.3 °F - 19.8 °F 28% 29.90 in 10.0 mi SW 12.7 mph 19.6 mph N/A   Clear
1:55 PM 54.7 °F - 16.3 °F 22% 29.90 in 10.0 mi SW 11.5 mph 19.6 mph N/A   Clear
2:15 PM 51.8 °F - 15.1 °F 23% 29.90 in 10.0 mi WSW 12.7 mph 19.6 mph N/A   Clear
2:35 PM 51.1 °F - 19.9 °F 29% 29.90 in 10.0 mi SSW 12.7 mph 18.4 mph N/A   Clear
2:55 PM 50.9 °F - 21.7 °F 32% 29.90 in 10.0 mi SSW 11.5 mph 20.7 mph N/A   Clear
3:15 PM 51.3 °F - 20.1 °F 29% 29.91 in 10.0 mi SSW 8.1 mph - N/A   Clear
3:35 PM 49.6 °F - 22.5 °F 34% 29.92 in 10.0 mi SW 10.4 mph 16.1 mph N/A   Scattered Clouds
3:55 PM 48.4 °F - 23.4 °F 37% 29.93 in 10.0 mi South 15.0 mph 19.6 mph N/A   Mostly Cloudy
4:15 PM 48.2 °F - 23.7 °F 38% 29.94 in 10.0 mi SW 9.2 mph - N/A   Mostly Cloudy
4:35 PM 47.8 °F - 23.0 °F 38% 29.94 in 10.0 mi SSW 13.8 mph 18.4 mph N/A   Overcast
4:55 PM 47.5 °F - 21.4 °F 36% 29.94 in 10.0 mi SSW 11.5 mph 16.1 mph N/A   Overcast
5:15 PM 46.0 °F 39.6 °F 24.4 °F 43% 29.94 in 10.0 mi SSW 15.0 mph 24.2 mph N/A   Overcast
5:35 PM 44.8 °F 37.4 °F 26.4 °F 49% 29.95 in 10.0 mi SSW 17.3 mph 25.3 mph N/A   Scattered Clouds
5:55 PM 44.8 °F 38.3 °F 26.1 °F 48% 29.95 in 10.0 mi SSW 13.8 mph 25.3 mph N/A   Scattered Clouds
6:15 PM 44.6 °F 38.1 °F 25.7 °F 48% 29.95 in 10.0 mi SSW 13.8 mph 21.9 mph N/A   Mostly Cloudy
6:35 PM 44.6 °F 40.2 °F 26.1 °F 48% 29.96 in 10.0 mi SW 8.1 mph - N/A   Overcast
6:55 PM 45.5 °F 41.3 °F 25.3 °F 45% 29.96 in 10.0 mi SSW 8.1 mph - N/A   Overcast
7:15 PM 44.6 °F 39.7 °F 26.6 °F 49% 29.96 in 10.0 mi SW 9.2 mph - N/A   Overcast
7:35 PM 43.9 °F 38.3 °F 27.5 °F 53% 29.97 in 10.0 mi SSW 10.4 mph - N/A   Overcast
7:55 PM 43.2 °F 36.6 °F 29.3 °F 58% 29.97 in 10.0 mi SSW 12.7 mph 19.6 mph N/A   Overcast
8:15 PM 42.1 °F 35.7 °F 30.9 °F 65% 29.98 in 10.0 mi WSW 11.5 mph 16.1 mph N/A   Overcast
8:35 PM 41.7 °F 36.7 °F 31.6 °F 67% 29.99 in 10.0 mi West 8.1 mph - N/A   Overcast
8:55 PM 41.2 °F 35.0 °F 32.0 °F 70% 29.99 in 10.0 mi West 10.4 mph - N/A   Overcast
9:15 PM 40.6 °F 36.0 °F 32.0 °F 71% 30.00 in 10.0 mi West 6.9 mph - N/A   Overcast
9:35 PM 39.6 °F 33.0 °F 34.2 °F 81% 30.00 in 10.0 mi WNW 10.4 mph - N/A   Overcast
9:55 PM 38.3 °F 34.8 °F 34.3 °F 86% 30.01 in 7.0 mi West 4.6 mph - N/A   Overcast
10:15 PM 37.6 °F 35.1 °F 34.7 °F 89% 30.01 in 7.0 mi SW 3.5 mph - N/A   Overcast
10:35 PM 36.9 °F - 34.7 °F 92% 30.01 in 5.0 mi Calm Calm - N/A   Overcast
10:55 PM 36.1 °F - 34.7 °F 94% 30.01 in 10.0 mi Calm Calm - N/A   Overcast
11:15 PM 36.1 °F - 34.7 °F 94% 30.01 in 10.0 mi Calm Calm - N/A   Overcast
11:35 PM 36.5 °F - 34.7 °F 93% 30.01 in 10.0 mi Calm Calm - N/A   Overcast
11:55 PM 35.8 °F - 34.2 °F 94% 30.02 in 5.0 mi Calm Calm - N/A   Overcast